Find Starlink 30595

NORAD ID: 58111 Int'l Des: 2023-161 Owner: SPXS Country: US Constellation: starlink operational
LEOCIRCULAR

当前视图

正在加载3D地球...

About Starlink 30595

Starlink 30595 (NORAD 58111) is a starlink constellation satellite (v2 mini) launched Oct 21, 2023 by SPXS of US. It operates in LEO, CIRCULAR orbit with a mass of 730.00 kg.

关于 Starlink 30595

正在加载描述...

即将过境

Passes for default location (London). Set your location on the main map for personalized predictions.

高度历史

Loading altitude history...

两行轨道根数

1 58111U 23161Q 26173.35001148 .00000718 00000-0 36351-4 0 9998
2 58111 53.1586 39.5368 0000767 96.8140 263.2948 15.30202080150447
Epoch: Jun 22, 2026 • Age: 25 hours

当前状态

高度 492.2 km
速度 7.62 km/s
星下点 -48.11°S, 70.76°W
发射日期 Oct 21, 2023
运行时间 2.6 years
类型 internet

技术详情

分类 Payload
质量 730.00 kg
干质量 700.00 kg
总质量 730.00 kg
长度 0.30 m
直径 4.10 m
跨度 29.00 m
形状 Box + pan
制造商 SPXS
平台类型 Starlink V2M
阶段状态 In Orbit
所有者/国家 SPXS/US

Most Searched